Weather History for La Junta, CO

Change the Weather History Date:

Wednesday, November 21, 2012

  Actual Average Record
Temperature  
Mean Temperature 54 °F 38 °F  
Max Temperature 78 °F 53 °F 78 °F (1974)
Min Temperature 30 °F 24 °F 4 °F (1973)
Degree Days  
Heating Degree Days 11 27  
Month to date heating degree days 355 459  
Since 1 July heating degree days 752 881  
Cooling Degree Days 0 0  
Month to date cooling degree days 0 0  
Year to date cooling degree days 1733 1226  
Growing Degree Days 4 (Base 50)    
Moisture  
Dew Point 11 °F    
Average Humidity 25    
Maximum Humidity 43    
Minimum Humidity 7    
Precipitation  
Precipitation 0.00 in 0.01 in 0.10 in (2011)
Month to date precipitation T 0.29  
Year to date precipitation 5.52 11.11  
Sea Level Pressure  
Sea Level Pressure 29.89 in    
Wind  
Wind Speed 8 mph (WSW)    
Max Wind Speed 20 mph    
Max Gust Speed 22 mph    
Visibility 10 miles    
Events      
T = Trace of Precipitation, MM = Missing Value Source: NWS Daily Summary

Daily Weather History Graph

Daily Weather History Graph

Search for Another Location

Airport:

Trip Planner

Search our weather history database for the weather conditions in past years. The results will help you decide how hot, cold, wet, or windy it might be!

Date:

Astronomy

Nov. 21, 2012 Rise Set
Actual Time 6:41 AM MST 4:38 PM MST
Civil Twilight 6:13 AM MST 5:06 PM MST
Nautical Twilight 5:41 AM MST 5:38 PM MST
Astronomical Twilight 5:09 AM MST 6:10 PM MST
Moon 12:50 PM MST (11/21) 12:09 AM MST (11/21)
Length of Visible Light 10h 53m
Length of Day
9h 56m
Waxing Gibbous, 62% of the Moon is Illuminated
Nov 21
Waxing Gibbous
Nov 28
Full
Dec 6
Last Quarter
Dec 13
New
Dec 19
First Quarter

Hourly Weather History & Observations

Time (MST) Temp. Windchill Dew Point Humidity Pressure Visibility Wind Dir Wind Speed Gust Speed Precip Events Conditions
12:53 AM 42.1 °F - 10.0 °F 27% 29.99 in 10.0 mi Calm Calm - N/A   Clear
1:53 AM 37.0 °F 34.5 °F 10.0 °F 33% 30.01 in 10.0 mi Variable 3.5 mph - N/A   Clear
2:53 AM 35.1 °F 30.1 °F 10.9 °F 37% 30.00 in 10.0 mi West 5.8 mph - N/A   Clear
3:53 AM 32.0 °F 24.8 °F 10.9 °F 42% 29.99 in 10.0 mi West 8.1 mph - N/A   Clear
4:53 AM 34.0 °F 31.0 °F 12.0 °F 40% 30.01 in 10.0 mi South 3.5 mph - N/A   Clear
5:53 AM 32.0 °F 24.2 °F 12.0 °F 44% 30.02 in 10.0 mi WNW 9.2 mph - N/A   Clear
6:53 AM 35.1 °F 30.1 °F 12.0 °F 39% 30.02 in 10.0 mi SW 5.8 mph - N/A   Clear
7:53 AM 37.0 °F 34.5 °F 12.9 °F 37% 30.02 in 10.0 mi West 3.5 mph - N/A   Clear
8:53 AM 48.0 °F - 14.0 °F 26% 29.99 in 10.0 mi West 8.1 mph - N/A   Clear
9:53 AM 57.0 °F - 15.1 °F 19% 29.96 in 10.0 mi West 6.9 mph - N/A   Clear
10:53 AM 66.0 °F - 15.1 °F 14% 29.91 in 10.0 mi WSW 5.8 mph - N/A   Clear
11:53 AM 69.1 °F - 15.1 °F 13% 29.86 in 10.0 mi SSW 4.6 mph - N/A   Clear
12:53 PM 73.9 °F - 12.0 °F 9% 29.82 in 10.0 mi SSW 9.2 mph - N/A   Clear
1:53 PM 77.0 °F - 8.1 °F 7% 29.79 in 10.0 mi SSW 10.4 mph - N/A   Clear
2:53 PM 75.9 °F - 10.0 °F 8% 29.78 in 10.0 mi SSE 13.8 mph - N/A   Clear
3:53 PM 73.9 °F - 9.0 °F 8% 29.78 in 10.0 mi Calm Calm - N/A   Clear
4:53 PM 66.0 °F - 7.0 °F 10% 29.80 in 10.0 mi WSW 13.8 mph - N/A   Clear
5:53 PM 63.0 °F - 5.0 °F 10% 29.82 in 10.0 mi WSW 16.1 mph - N/A   Clear
6:53 PM 61.0 °F - 5.0 °F 11% 29.81 in 10.0 mi WSW 17.3 mph - N/A   Clear
7:53 PM 52.0 °F - 6.1 °F 16% 29.83 in 10.0 mi West 17.3 mph - N/A   Clear
8:53 PM 52.0 °F - 8.1 °F 17% 29.81 in 10.0 mi West 10.4 mph - N/A   Clear
9:53 PM 46.9 °F - 10.0 °F 22% 29.80 in 10.0 mi West 12.7 mph - N/A   Clear
10:53 PM 43.0 °F 41.3 °F 10.9 °F 27% 29.79 in 10.0 mi Variable 3.5 mph - N/A   Clear
11:53 PM 45.0 °F 40.1 °F 12.0 °F 26% 29.78 in 10.0 mi West 9.2 mph - N/A   Clear